Temp
60 60 60 60 60 59 59 59 59 60 60 60 60 60 61 61 60 55 48 56 58 64 66 63 65 64 64 60 63 62 46 44 51 56 61 71 65 83 83 80 80 82 78 79 82
59 59 59 59 59 58 58 59 59 59 60 60 60 60 60 60 53 50 60 65 66 67 63 59 59 62 54 57 59 54 46 50 58 61 55 68 71 79 77 74 71 74 77 79 82
59 58 59 59 59 59 58 59 59 60 59 59 60 59 59 60 45 48 69 69 70 69 65 64 62 59 51 54 56 53 51 62 59 65 66 68 72 80 75 66 70 72 75 82 83
58 58 58 59 59 59 58 58 59 59 59 60 60 59 59 53 34 60 71 69 68 69 63 60 56 48 47 48 56 51 60 62 61 67 65 67 72 73 79 75 78 78 80 82 82
58 58 58 58 58 58 58 58 58 58 58 58 59 59 54 45 43 62 66 67 66 65 60 56 51 49 44 49 54 54 58 62 66 66 67 70 69 68 75 79 80 80 81 81 79
58 58 58 58 58 58 58 58 58 57 58 58 59 59 46 38 59 63 63 63 62 57 58 57 54 55 51 51 51 57 59 63 64 62 64 66 68 70 75 80 78 77 76 78 76
57 57 57 57 57 58 58 57 57 57 58 58 59 57 45 43 60 61 59 55 59 58 55 63 62 57 57 52 58 59 52 58 62 65 62 64 63 66 75 77 76 74 74 75 72
57 56 56 57 57 58 58 57 57 58 58 59 59 50 40 58 57 56 58 56 60 61 60 63 65 58 53 58 57 52 50 43 55 62 65 66 55 69 74 73 75 73 73 73 69
57 56 56 56 57 57 57 57 58 58 59 59 50 46 39 61 57 61 59 55 59 62 63 69 66 57 56 47 42 46 39 44 53 61 63 62 56 68 72 73 69 71 72 71 69
56 56 55 56 56 56 56 57 56 55 57 58 55 43 49 55 60 61 61 60 57 59 58 61 59 51 45 42 35 39 42 45 48 55 59 58 58 63 68 72 67 68 67 67 69
56 55 55 56 56 56 52 47 47 43 46 45 50 50 55 62 66 61 65 59 55 55 43 56 44 41 46 49 52 51 48 47 53 61 57 56 59 62 66 66 63 64 64 63 64
55 55 56 55 56 55 49 47 57 54 42 55 53 54 59 60 54 57 62 51 48 40 48 46 43 51 55 55 53 52 48 46 54 62 57 58 58 60 64 65 63 63 61 64 64
55 55 55 55 55 51 50 59 64 59 40 51 58 58 56 59 52 51 55 54 47 44 43 41 47 56 55 53 51 50 47 47 49 57 58 56 52 57 62 60 61 60 62 64 64
55 55 55 55 53 52 54 64 63 56 34 45 50 57 60 58 51 58 59 54 48 43 45 46 53 52 51 51 54 46 56 56 55 49 41 56 39 51 56 53 57 57 60 60 62
55 55 55 54 48 49 60 63 59 50 22 48 50 64 60 53 52 52 59 54 46 47 46 44 47 48 48 52 57 51 60 55 55 47 44 48 42 49 56 50 54 56 58 60 63
55 55 54 53 47 53 64 63 52 34 23 41 51 52 51 52 49 51 51 57 54 48 48 48 55 52 53 59 60 62 55 52 50 45 36 45 45 45 52 56 54 58 59 60 60
54 54 52 57 53 58 59 52 34 29 49 39 44 50 47 47 48 48 46 44 42 37 36 47 49 54 58 51 56 54 44 34 33 33 33 47 44 47 56 60 60 59 60 60 61
53 53 52 58 56 58 55 43 30 42 42 50 48 48 43 48 47 46 44 40 48 45 39 37 36 50 57 51 47 46 43 33 30 28 37 49 40 50 59 63 64 65 63 61 61
52 50 53 60 60 57 46 33 37 41 47 45 45 42 44 49 47 45 42 43 50 50 38 39 44 56 57 58 55 47 40 48 39 40 37 41 49 57 62 62 60 59 60 59 61
45 46 53 64 62 55 43 39 44 51 51 47 39 43 41 45 45 42 42 50 49 54 52 47 42 55 57 57 57 50 55 40 35 29 29 39 42 46 53 60 60 57 58 60 61
45 47 60 62 59 48 34 39 46 54 53 46 43 43 45 41 42 45 46 53 56 56 54 48 43 50 56 50 48 49 43 49 43 38 31 30 38 52 55 58 58 60 62 60 62
40 43 60 60 45 40 39 46 51 51 52 51 50 48 45 46 45 45 47 52 61 59 49 50 45 40 46 56 62 55 49 47 35 38 38 40 39 56 58 62 60 62 64 65 64
38 42 57 54 35 36 44 48 54 48 46 49 47 51 51 46 41 48 52 62 61 58 51 52 43 36 44 50 55 49 52 49 45 42 39 38 42 60 59 57 61 66 67 66 64
41 39 44 44 44 39 39 41 46 53 49 49 48 52 47 46 50 46 48 55 57 60 60 55 44 43 36 44 49 47 52 50 46 35 38 41 44 51 53 53 54 54 58 57 58
42 38 41 34 39 40 40 43 42 43 47 46 44 47 45 41 44 43 48 49 55 55 53 51 41 46 48 52 54 54 53 51 46 45 41 44 44 49 53 54 55 55 57 56 56
38 37 39 37 41 41 41 41 41 45 43 43 39 44 43 42 42 40 44 46 44 49 45 46 41 44 46 53 54 51 54 54 51 49 48 49 46 54 56 56 56 55 56 54 54
42 43 38 38 39 38 37 41 43 44 47 49 46 42 41 43 46 48 49 49 47 44 43 42 41 39 38 49 52 43 52 54 53 54 50 44 47 51 50 51 52 52 53 52 52
MSLP
1020.63 1020.15 1019.71 1019.29 1018.92 1018.57 1018.25 1017.95 1017.59 1017.21 1016.87 1016.56 1016.19 1015.89 1015.56 1015.29 1014.97 1014.74 1013.96 1012.28 1011.99 1011.36 1011.77 1011.49 1010.97 1010.73 1010.66 1010.51 1010.21 1010.20 1010.87 1009.67 1008.22 1007.21 1005.03 1004.39 1004.38 1004.05 1003.56 1003.46 1004.03 1003.79 1004.62 1004.69 1004.77
1020.52 1020.01 1019.52 1019.07 1018.67 1018.30 1017.94 1017.56 1017.27 1017.03 1016.70 1016.42 1016.05 1015.76 1015.31 1014.90 1014.66 1013.81 1010.95 1010.93 1010.94 1010.98 1011.29 1011.33 1010.93 1010.77 1010.75 1010.19 1009.92 1009.77 1009.31 1007.96 1007.00 1006.67 1005.83 1004.77 1004.71 1004.39 1003.72 1004.29 1005.07 1005.30 1005.52 1006.08 1005.11
1020.35 1019.83 1019.25 1018.71 1018.23 1017.85 1017.46 1017.02 1016.74 1016.46 1016.17 1015.89 1015.72 1015.44 1015.25 1014.76 1014.46 1011.62 1009.87 1010.08 1009.83 1010.51 1010.90 1011.04 1011.02 1011.17 1010.72 1009.99 1009.23 1008.43 1007.23 1007.35 1006.82 1006.47 1005.87 1004.92 1004.65 1005.07 1004.03 1004.76 1004.55 1004.85 1005.14 1005.13 1004.59
1020.13 1019.52 1018.91 1018.33 1017.83 1017.41 1017.05 1016.65 1016.35 1016.06 1015.81 1015.55 1015.40 1015.32 1015.18 1015.00 1013.69 1010.07 1009.07 1009.81 1010.21 1009.81 1010.76 1010.85 1011.04 1011.22 1010.57 1009.60 1008.78 1008.22 1007.23 1007.35 1006.83 1006.22 1005.58 1004.77 1005.14 1005.32 1004.34 1003.87 1003.86 1004.01 1003.87 1004.04 1003.88
1019.77 1019.12 1018.55 1017.98 1017.43 1016.95 1016.57 1016.21 1015.85 1015.59 1015.45 1015.37 1015.20 1015.12 1015.14 1014.87 1012.69 1010.45 1010.06 1010.09 1010.17 1009.85 1010.00 1010.37 1010.67 1010.81 1010.33 1009.42 1008.74 1007.78 1007.49 1006.96 1006.45 1006.01 1005.35 1004.97 1004.35 1005.31 1004.08 1003.73 1003.77 1003.93 1004.19 1004.12 1004.34
1019.35 1018.72 1018.08 1017.42 1016.88 1016.40 1015.97 1015.63 1015.31 1015.17 1015.09 1014.99 1014.86 1014.78 1015.02 1014.41 1010.97 1010.65 1010.39 1010.27 1010.43 1010.71 1010.41 1009.88 1009.91 1009.95 1009.89 1009.20 1008.65 1007.45 1007.08 1006.65 1006.01 1005.67 1005.26 1004.63 1004.31 1004.68 1003.04 1003.41 1003.93 1004.18 1004.03 1003.87 1004.15
1019.04 1018.38 1017.70 1017.00 1016.41 1015.86 1015.43 1015.09 1014.85 1014.59 1014.43 1014.56 1014.53 1014.72 1014.64 1013.09 1010.43 1010.25 1010.22 1010.24 1010.16 1010.68 1010.40 1009.29 1009.20 1009.42 1008.99 1008.63 1007.94 1007.11 1007.05 1006.42 1005.61 1005.43 1004.84 1004.81 1004.32 1002.84 1002.85 1003.03 1003.81 1004.13 1004.05 1004.29 1005.11
1018.67 1017.99 1017.26 1016.58 1015.94 1015.45 1015.08 1014.75 1014.28 1014.33 1014.26 1014.11 1014.31 1014.49 1013.46 1010.83 1010.20 1010.18 1009.75 1009.86 1009.61 1009.67 1009.63 1008.87 1008.79 1009.13 1009.16 1008.33 1007.73 1007.15 1006.69 1006.37 1004.96 1004.74 1004.51 1004.83 1003.41 1001.32 1002.57 1002.69 1003.07 1003.69 1004.68 1005.24 1006.01
1018.29 1017.56 1016.86 1016.13 1015.59 1015.14 1014.71 1014.15 1014.00 1013.93 1014.01 1014.17 1014.32 1014.31 1012.20 1009.95 1009.63 1008.89 1008.95 1009.24 1009.05 1008.66 1008.13 1007.80 1008.08 1008.45 1008.37 1008.61 1008.32 1007.21 1006.49 1005.95 1005.33 1004.35 1004.35 1003.87 1002.45 1001.98 1002.57 1002.64 1003.41 1004.35 1004.41 1004.87 1005.58
1017.96 1017.18 1016.42 1015.64 1015.25 1014.71 1014.44 1013.51 1013.56 1013.82 1013.82 1013.85 1013.84 1013.93 1011.29 1009.44 1008.83 1008.57 1008.25 1008.59 1008.83 1008.28 1007.22 1006.94 1007.23 1007.63 1008.04 1008.23 1007.48 1006.99 1006.33 1005.53 1005.06 1004.12 1003.91 1003.29 1002.36 1002.85 1002.64 1002.73 1003.32 1004.17 1004.83 1004.79 1004.76
1017.68 1016.83 1016.10 1015.20 1014.83 1014.49 1014.16 1013.98 1013.69 1013.67 1013.45 1012.73 1012.09 1011.39 1009.82 1008.96 1008.29 1008.00 1007.81 1008.24 1008.79 1008.42 1007.86 1006.97 1007.62 1006.95 1006.92 1007.27 1006.95 1006.41 1005.81 1005.25 1004.68 1003.80 1003.86 1003.19 1002.88 1003.11 1002.77 1003.07 1003.71 1004.80 1005.21 1005.32 1005.06
1017.42 1016.48 1015.59 1014.71 1014.02 1013.79 1014.00 1013.53 1012.31 1012.39 1012.27 1010.95 1010.59 1010.32 1008.78 1008.93 1008.40 1007.89 1007.82 1008.51 1008.99 1009.09 1008.60 1007.91 1006.94 1006.97 1006.92 1006.96 1006.73 1006.07 1005.59 1005.05 1004.40 1003.53 1003.83 1003.25 1002.77 1003.09 1002.98 1003.16 1003.61 1004.77 1005.49 1005.98 1006.27
1016.88 1016.14 1015.17 1014.11 1013.45 1013.20 1013.12 1012.12 1011.49 1011.62 1012.22 1010.37 1009.24 1008.66 1008.37 1008.63 1008.69 1008.37 1008.32 1008.25 1008.52 1008.71 1008.73 1007.98 1007.22 1006.73 1006.21 1006.06 1005.89 1005.39 1005.11 1004.95 1004.68 1003.94 1003.86 1003.84 1003.52 1003.33 1003.36 1003.90 1004.55 1005.20 1005.74 1006.17 1006.31
1016.46 1015.63 1014.97 1013.88 1013.10 1012.95 1012.12 1011.47 1011.24 1011.54 1011.97 1010.37 1008.81 1007.99 1008.07 1008.30 1008.52 1008.45 1008.35 1008.51 1008.15 1008.49 1008.33 1007.79 1006.85 1006.38 1005.77 1005.34 1005.17 1004.62 1004.58 1004.81 1004.82 1005.25 1004.99 1003.94 1003.95 1003.64 1004.11 1004.78 1005.54 1005.85 1006.01 1006.27 1006.55
1015.75 1015.22 1014.44 1014.26 1013.72 1012.93 1011.31 1011.12 1011.35 1011.88 1011.76 1010.24 1008.73 1007.39 1007.76 1008.66 1008.78 1008.57 1008.46 1008.27 1008.20 1008.02 1008.00 1007.23 1006.45 1006.05 1005.39 1004.66 1004.46 1004.43 1004.44 1004.80 1005.15 1005.55 1005.54 1004.75 1004.81 1003.18 1004.01 1005.37 1005.64 1006.12 1006.30 1006.39 1005.81
1014.96 1014.25 1014.09 1013.48 1013.69 1011.59 1010.91 1010.97 1011.58 1012.23 1011.55 1010.41 1009.08 1008.12 1008.01 1008.55 1008.79 1008.81 1008.64 1008.38 1008.07 1007.86 1007.64 1006.95 1006.20 1005.81 1004.56 1004.16 1004.30 1004.32 1004.64 1005.13 1005.64 1006.21 1006.26 1005.25 1005.00 1003.57 1003.71 1003.91 1005.09 1005.82 1006.03 1006.47 1006.76
1014.45 1013.05 1013.32 1012.71 1011.70 1010.41 1010.78 1011.59 1012.08 1012.34 1011.70 1010.79 1009.44 1008.63 1008.41 1008.21 1008.56 1008.75 1008.67 1008.48 1008.18 1007.94 1007.55 1006.55 1005.59 1004.73 1004.24 1004.16 1004.13 1004.53 1005.45 1006.31 1007.02 1007.24 1006.36 1005.27 1005.01 1003.17 1002.29 1002.57 1002.97 1004.07 1005.17 1005.71 1006.51
1013.93 1012.46 1012.01 1011.28 1010.15 1010.52 1011.09 1011.88 1012.39 1012.41 1011.90 1010.77 1009.90 1008.76 1008.42 1008.20 1008.36 1008.67 1008.75 1008.36 1007.64 1007.70 1007.33 1006.45 1005.16 1004.17 1003.63 1003.98 1004.19 1004.81 1005.82 1006.23 1006.96 1007.47 1006.30 1005.59 1004.68 1001.91 1001.58 1001.96 1002.18 1003.08 1003.57 1004.99 1005.64
1013.62 1012.40 1011.93 1010.07 1009.70 1010.71 1011.94 1012.57 1013.01 1012.51 1011.81 1010.89 1009.91 1009.00 1008.19 1008.08 1008.27 1008.34 1008.18 1007.57 1006.79 1006.53 1006.86 1005.68 1003.95 1002.98 1003.08 1003.32 1004.04 1004.58 1005.68 1006.16 1006.97 1007.49 1007.01 1005.82 1003.81 1001.85 1001.15 1001.37 1002.03 1002.83 1004.05 1004.82 1005.06
1014.71 1013.75 1011.49 1009.43 1009.48 1010.58 1012.11 1012.64 1012.20 1011.74 1011.32 1011.01 1010.41 1009.71 1008.62 1008.03 1007.95 1007.97 1007.15 1006.03 1005.75 1005.11 1005.25 1005.10 1003.95 1002.75 1002.47 1003.01 1003.30 1003.68 1004.79 1006.23 1007.75 1008.48 1007.81 1005.75 1004.21 1002.31 1001.37 1001.08 1001.92 1002.65 1003.17 1004.25 1004.52
1015.09 1013.97 1010.83 1009.64 1009.68 1011.74 1012.90 1012.66 1011.76 1011.15 1010.92 1010.99 1010.77 1009.98 1008.97 1008.57 1007.97 1007.29 1006.04 1004.74 1004.24 1003.80 1004.48 1004.75 1004.89 1003.13 1002.50 1002.63 1002.85 1003.51 1004.53 1006.22 1007.45 1008.39 1008.22 1006.67 1003.69 1001.62 1000.95 1000.68 1001.45 1001.91 1002.02 1003.03 1004.11
1016.92 1014.69 1011.21 1010.19 1011.79 1012.94 1013.17 1012.49 1011.75 1011.15 1010.94 1010.65 1010.57 1010.10 1009.53 1008.99 1007.89 1007.09 1005.19 1003.76 1002.68 1002.98 1003.75 1003.89 1004.03 1003.66 1002.69 1002.07 1002.27 1003.17 1004.43 1005.88 1007.09 1007.93 1007.80 1006.75 1004.22 1001.44 1000.59 999.84 1000.15 1000.69 1001.03 1001.97 1003.49
1017.94 1015.77 1012.02 1011.80 1013.87 1014.39 1013.62 1012.55 1011.59 1011.13 1010.79 1010.51 1010.31 1010.09 1009.85 1009.13 1008.24 1006.61 1005.00 1003.18 1002.65 1002.73 1002.84 1003.03 1003.59 1003.74 1003.03 1002.66 1002.57 1003.04 1003.77 1004.83 1005.73 1006.62 1007.16 1006.85 1004.04 1002.91 1001.05 999.89 1000.23 1000.61 1001.03 1002.45 1003.65
1018.21 1017.09 1015.32 1014.69 1015.08 1015.09 1014.70 1013.18 1011.97 1011.10 1010.87 1010.68 1010.57 1010.01 1009.97 1009.46 1008.45 1007.19 1006.03 1004.16 1003.57 1002.70 1002.11 1002.51 1003.28 1003.46 1003.59 1002.70 1002.55 1002.72 1003.20 1004.09 1004.98 1006.28 1006.72 1005.83 1005.09 1004.35 1003.41 1002.03 1001.86 1002.42 1002.41 1003.37 1004.07
1018.95 1019.15 1018.45 1017.38 1016.29 1016.03 1015.31 1013.95 1012.77 1011.69 1011.13 1010.92 1010.66 1010.62 1010.43 1009.90 1008.91 1008.35 1007.15 1005.84 1004.18 1004.23 1003.54 1003.27 1003.74 1003.41 1002.82 1002.21 1001.93 1001.94 1002.25 1003.37 1004.23 1004.77 1005.36 1005.53 1005.92 1005.40 1004.58 1004.36 1003.77 1003.77 1004.24 1004.95 1005.88
1020.19 1020.30 1019.41 1018.38 1017.31 1016.47 1015.40 1014.58 1013.71 1012.67 1011.69 1011.16 1011.09 1010.84 1010.57 1010.43 1010.17 1009.36 1009.09 1007.90 1006.93 1005.31 1005.44 1004.54 1004.48 1003.75 1003.01 1001.97 1001.54 1001.53 1001.47 1002.24 1003.21 1004.06 1004.33 1005.01 1006.17 1006.61 1006.88 1006.03 1005.84 1005.77 1005.49 1006.51 1007.42
1020.57 1020.11 1020.03 1018.81 1017.77 1017.07 1016.39 1015.53 1014.47 1013.69 1012.29 1011.52 1011.37 1011.02 1010.68 1010.39 1009.90 1008.64 1008.79 1008.25 1007.49 1007.28 1006.58 1006.08 1005.33 1004.80 1003.98 1002.94 1001.66 1001.79 1000.99 1001.29 1001.99 1002.59 1002.99 1004.48 1006.57 1007.45 1008.11 1007.92 1007.73 1007.37 1007.67 1008.54 1009.35
Wind_Speed
18 18 18 18 18 17 18 18 18 18 18 19 19 17 17 17 16 10 18 15 13 26 17 11 4 5 3 5 5 5 3 9 13 14 11 7 1 3 7 10 5 4 12 16 28
19 19 19 20 19 18 17 17 17 16 18 17 17 18 19 15 10 15 24 21 21 21 10 7 6 4 3 5 5 6 7 10 3 6 3 9 1 4 2 4 4 2 19 14 21
20 21 21 21 20 18 18 19 17 16 15 15 15 16 17 13 7 10 3 16 10 19 14 8 6 3 6 4 7 7 11 17 2 7 8 11 7 3 1 2 9 16 20 20 24
22 21 22 23 21 21 20 20 19 17 16 15 12 13 14 3 7 4 5 19 26 10 13 9 4 4 4 8 6 6 7 7 4 9 7 13 4 3 9 8 12 24 23 21 23
22 22 23 22 22 21 19 18 18 17 16 15 13 10 4 4 14 14 29 23 18 6 18 15 9 6 5 3 4 11 6 4 8 11 14 12 17 4 16 7 15 19 18 21 11
22 23 23 23 22 21 19 17 16 15 14 12 12 6 1 12 9 10 14 16 8 8 14 11 7 9 4 6 5 2 7 16 10 9 8 14 11 5 15 2 17 19 21 20 16
22 23 23 24 22 20 17 15 13 13 11 9 9 3 4 16 6 4 10 6 10 13 11 9 17 6 9 6 5 10 6 6 11 16 10 2 11 20 12 4 16 22 23 16 5
23 23 24 24 22 20 17 15 13 10 10 7 6 2 9 7 7 10 14 13 13 14 16 17 14 11 4 7 8 4 3 2 5 9 8 9 16 20 8 3 17 20 14 11 5
24 24 25 24 23 20 17 14 8 5 4 4 1 3 11 8 5 10 13 8 8 10 10 15 12 10 4 5 4 4 4 5 4 6 5 11 10 11 7 6 10 16 18 16 9
25 24 24 24 22 20 14 13 2 4 4 5 4 2 7 8 3 8 6 9 5 9 6 8 10 10 3 5 8 4 4 3 5 2 6 11 17 5 4 6 12 13 9 9 13
27 25 24 24 20 16 9 4 4 2 3 7 6 6 16 3 8 9 5 5 3 4 3 2 8 14 14 7 10 6 2 2 3 6 4 9 12 8 7 6 10 9 9 5 5
28 27 25 24 22 18 2 2 5 6 7 12 17 13 17 2 10 9 5 4 5 3 6 3 7 6 8 7 11 10 6 4 4 9 5 11 14 3 5 6 8 15 12 14 8
27 25 26 25 24 2 4 4 4 5 0 8 7 3 3 6 2 6 6 4 5 3 7 3 5 6 8 8 12 11 7 3 5 7 3 5 7 5 1 5 6 9 12 13 17
27 26 23 24 4 4 3 6 5 5 4 7 6 1 4 5 1 2 4 2 1 6 4 5 6 7 9 10 9 12 6 6 5 4 4 7 5 4 4 4 4 8 14 12 13
30 26 23 10 4 3 5 6 6 5 5 14 6 5 5 2 5 1 2 2 4 3 4 5 3 4 8 13 12 3 5 4 4 4 3 4 3 9 9 3 9 8 10 15 15
33 28 18 2 1 9 1 4 4 6 4 8 5 11 9 4 2 4 2 1 5 3 4 9 9 5 6 7 8 1 2 1 1 4 2 7 5 6 7 10 5 9 11 13 11
34 33 13 3 6 3 3 3 6 6 5 8 7 12 11 3 3 1 2 4 2 2 2 4 9 5 4 1 3 4 5 1 1 1 7 6 2 9 5 10 16 20 17 15 14
36 26 4 6 6 2 4 6 7 2 4 8 9 16 3 3 2 3 2 4 5 3 3 4 4 7 5 4 4 5 7 6 6 5 5 5 6 11 6 4 10 16 20 17 19
28 5 3 7 5 4 6 6 3 3 5 9 14 5 3 0 3 3 5 4 5 11 6 3 5 4 7 8 7 5 5 5 6 2 3 4 7 8 7 3 7 9 10 18 21
5 5 5 7 6 5 6 2 2 3 7 3 4 2 6 7 3 5 7 5 6 13 8 4 5 6 8 4 10 3 7 6 5 2 3 5 4 9 6 12 8 10 14 10 8
3 5 6 7 5 6 3 5 4 2 3 2 5 8 7 4 10 5 5 5 12 6 12 4 2 4 5 6 6 3 5 5 5 4 1 3 8 7 11 10 13 18 19 13 14
5 4 4 6 6 2 3 3 4 2 3 2 5 9 9 14 6 7 7 7 8 7 7 9 5 3 7 5 7 5 9 8 5 4 5 2 9 4 8 15 10 20 20 20 15
4 4 4 7 4 4 7 8 4 2 3 2 3 5 9 7 6 10 9 10 12 7 7 5 1 3 3 3 4 5 5 5 4 5 3 3 7 11 17 11 6 16 13 10 15
3 5 7 6 1 1 5 6 7 3 3 1 3 5 10 7 7 8 10 8 17 7 9 6 3 6 6 5 5 3 4 6 4 5 5 4 7 14 11 13 16 14 14 12 11
5 3 2 6 6 10 6 4 7 6 2 1 4 3 4 6 8 6 8 13 13 13 10 3 1 3 4 8 6 8 7 11 5 7 5 2 4 10 12 12 14 16 18 19 16
3 3 5 5 8 6 5 5 7 11 4 5 2 7 2 3 4 8 10 7 5 9 9 8 2 3 5 5 11 7 10 7 9 4 5 5 9 10 7 14 15 17 21 20 18
4 3 4 6 5 5 3 10 11 12 9 6 6 5 4 3 14 19 13 14 14 8 4 4 3 4 5 6 2 3 11 8 10 7 8 5 8 12 9 14 12 16 18 18 16
Wind_Direction
341 336 332 330 326 326 325 324 322 320 320 319 321 318 308 308 310 305 274 230 213 243 270 276 271 266 264 228 209 155 179 218 215 205 224 309 305 54 10 119 349 160 154 163 153
337 333 332 328 324 322 318 313 313 313 313 314 317 320 326 308 307 285 247 250 239 247 256 234 274 283 282 212 212 173 201 225 172 246 274 278 11 306 65 107 26 34 128 184 153
336 333 329 325 323 321 314 310 306 303 301 304 308 312 319 330 314 248 350 22 262 227 225 253 293 312 220 235 214 204 226 233 180 242 260 277 302 339 239 200 193 180 173 177 160
336 332 327 327 323 321 316 312 309 306 304 302 299 305 318 323 285 237 180 349 335 283 219 215 249 212 235 219 216 259 241 242 328 292 283 262 40 346 284 259 200 173 181 171 168
335 333 329 325 321 317 313 308 304 300 297 300 296 294 339 247 249 284 298 312 316 304 198 205 195 185 234 227 266 245 265 260 215 243 264 277 269 244 275 260 179 177 176 181 208
337 333 330 324 322 319 314 307 300 298 287 284 290 292 182 261 270 284 280 293 310 3 326 191 216 199 266 241 187 116 232 247 248 253 251 262 285 181 258 111 185 179 190 185 207
333 333 330 327 329 327 323 313 309 304 296 278 273 277 243 253 230 263 298 279 291 291 289 254 216 223 191 295 256 257 241 259 239 242 248 286 283 243 248 227 182 195 198 204 109
335 332 331 330 331 330 332 328 309 308 299 278 257 235 255 252 253 271 259 273 272 263 246 256 256 220 219 287 330 288 142 229 252 197 246 152 257 261 200 207 184 183 183 173 140
337 334 331 330 331 331 330 314 314 292 273 249 181 166 266 286 232 251 225 239 290 284 247 245 230 211 224 201 345 254 217 198 304 183 214 180 250 272 211 219 162 180 179 174 161
337 335 331 328 330 328 332 320 175 5 226 209 252 273 261 317 337 284 195 187 237 304 288 205 203 203 189 149 208 211 190 184 184 165 194 259 249 344 265 218 159 179 163 160 158
337 334 331 323 325 323 343 355 13 343 208 211 235 241 282 324 284 307 360 132 73 343 348 192 207 199 208 210 275 311 255 209 219 252 182 249 265 244 271 247 152 163 156 142 82
335 334 330 323 319 314 206 220 177 201 304 244 242 241 258 237 313 353 3 115 145 179 319 313 231 222 185 217 231 250 273 288 287 246 165 259 269 200 258 251 168 151 145 160 146
332 332 329 324 320 36 183 243 129 109 100 293 281 294 43 165 345 307 5 232 144 136 217 286 283 227 243 209 209 233 233 237 215 344 240 265 276 200 200 83 82 105 143 148 158
331 331 332 328 347 310 245 158 99 103 47 326 343 122 18 129 300 62 350 296 3 180 233 281 257 251 238 233 215 228 207 243 269 26 231 165 266 231 171 98 103 133 148 155 159
329 330 328 319 274 313 245 151 101 62 45 321 305 256 107 111 321 322 262 278 178 196 140 237 242 238 258 238 238 273 188 224 245 216 326 289 104 251 123 125 173 172 170 168 178
329 328 332 92 196 236 288 99 57 45 320 330 297 329 337 282 174 309 4 271 241 240 247 269 290 273 235 260 243 164 9 56 67 131 215 235 147 265 177 181 168 181 183 179 190
330 323 314 217 237 154 146 35 26 56 320 297 300 322 319 260 104 338 26 311 295 149 267 298 258 234 255 13 9 94 82 15 68 99 216 157 118 238 257 165 174 188 189 185 188
328 320 224 219 247 47 37 39 46 344 297 295 309 309 284 192 118 145 278 282 245 230 298 235 299 188 186 175 163 164 156 156 168 179 249 135 210 248 219 101 171 187 181 176 186
327 332 286 263 229 107 73 47 317 304 290 306 318 296 322 342 195 150 222 240 239 183 192 272 245 152 179 168 141 140 141 172 100 264 63 221 266 317 246 243 130 166 157 183 184
326 330 281 294 139 73 65 244 256 220 290 283 292 4 315 344 269 189 191 201 243 203 184 293 324 188 197 161 211 155 163 65 22 117 243 263 246 239 224 231 163 180 194 197 205
15 10 273 330 65 52 131 240 265 305 6 337 318 300 289 299 317 267 248 236 210 210 165 163 187 297 105 181 154 111 76 41 99 133 257 322 262 217 219 226 166 195 193 171 184
344 357 305 16 46 360 327 253 257 324 342 330 283 268 289 323 289 239 251 227 181 168 168 201 175 212 190 206 148 145 150 160 131 203 208 177 274 323 279 216 168 182 182 178 176
327 275 319 67 55 328 308 310 251 248 225 257 248 324 320 305 321 302 326 282 235 185 192 191 194 57 111 354 46 146 172 135 125 78 207 146 276 6 12 62 91 191 168 141 152
4 352 330 22 81 348 336 291 311 223 214 309 283 1 346 322 293 299 321 320 326 291 141 99 159 150 192 205 167 163 156 156 128 120 206 236 314 356 13 62 74 76 95 79 76
22 329 28 309 321 326 301 273 325 331 280 10 349 328 354 301 313 354 330 336 334 7 347 58 72 344 273 206 179 201 233 164 158 168 147 264 6 354 81 68 80 93 92 82 74
59 15 336 281 280 310 345 338 319 331 291 305 241 298 272 283 321 308 333 342 272 328 343 328 281 25 327 273 194 208 231 204 153 176 127 102 74 64 92 97 91 87 91 89 90
315 320 126 277 312 344 331 315 339 350 318 325 318 334 306 335 301 282 261 251 250 288 324 300 33 39 288 345 300 309 241 195 179 187 145 110 129 97 59 69 71 89 87 85 84